DW3733 Luzzi (cosenza) IT current weather conditions

sailwx.info

Wind from 315 at 1 knots gusting 2

Air temperature 7.8° C
Dewpoint 4.9° C

Last reported at 2016-Dec-02 23:53 UTC.
Time now 2016-Dec-03 00:24 UTC

Location: N 39°27' E 016°16'.
View on Google Maps.

See reports from other nearby stations

  
Tides and Currents Weather Stations Pressure Air Temp Water Temp Dewpoint Dewpoint Depression Visibility Wind Speed Wind Dir Waves Ship Positions
date/time (UTC)wind fromknots sea level pressurealtimeterstation pressurevisibilityair tempwater tempwave heightnotes
2016-Dec-02 23:53 315 1 gusting 2 7.8
2016-Dec-02 23:43 283 0 gusting 2 8.3
2016-Dec-02 23:33 299 0 gusting 2 8.3
2016-Dec-02 23:23 292 0 gusting 2 9.4
2016-Dec-02 23:13 025 0 gusting 2 9.4
2016-Dec-02 23:03 10.0
2016-Dec-02 22:53 331 2 gusting 6 10.0
2016-Dec-02 22:43 089 1 gusting 5 10.0
2016-Dec-02 22:33 025 10.0
2016-Dec-02 22:23 158 2 gusting 5 10.6
2016-Dec-02 22:13 019 0 gusting 2 10.6
2016-Dec-02 22:03 076 0 gusting 2 10.6
2016-Dec-02 21:53 351 0 gusting 4 10.6
2016-Dec-02 21:43 250 1 gusting 6 11.1
2016-Dec-02 21:33 033 1 gusting 5 12.2
2016-Dec-02 21:23 055 0 gusting 5 11.7
2016-Dec-02 21:13 045 0 gusting 5 12.2
2016-Dec-02 21:03 315 2 gusting 6 12.2
2016-Dec-02 20:53 001 1 gusting 7 12.8
2016-Dec-02 20:43 331 1 gusting 6 12.8
2016-Dec-02 20:23 333 2 gusting 5 12.2
2016-Dec-02 20:13 246 0 gusting 2 12.2
2016-Dec-02 20:03 014 1 gusting 5 12.8
2016-Dec-02 19:53 012 1 gusting 5 12.8
2016-Dec-02 19:43 037 1 gusting 5 12.8
2016-Dec-02 19:33 016 0 gusting 2 12.8
2016-Dec-02 19:23 328 0 gusting 6 13.3
2016-Dec-02 19:13 045 1 gusting 6 13.3
2016-Dec-02 19:03 045 0 gusting 5 13.3
2016-Dec-02 18:53 065 2 gusting 5 13.3
2016-Dec-02 18:43 002 2 gusting 5 12.8
2016-Dec-02 18:33 007 1 gusting 5 12.8
2016-Dec-02 18:23 020 1 gusting 5 13.3
2016-Dec-02 18:13 329 12.8
2016-Dec-02 18:03 045 0 gusting 4 12.8
2016-Dec-02 17:53 061 1 gusting 5 12.8
2016-Dec-02 17:43 018 1 gusting 5 12.8
2016-Dec-02 17:33 043 0 gusting 5 12.8
2016-Dec-02 17:23 062 0 gusting 6 12.2
2016-Dec-02 17:13 045 2 gusting 6 12.8
2016-Dec-02 17:03 045 1 gusting 8 12.2
2016-Dec-02 16:53 027 0 gusting 2 12.2
2016-Dec-02 16:43 336 0 gusting 6 12.2
2016-Dec-02 16:33 008 4 gusting 8 12.8
2016-Dec-02 16:23 124 2 gusting 6 12.8
2016-Dec-02 16:13 315 2 gusting 6 12.8
2016-Dec-02 16:03 342 1 gusting 4 12.8
2016-Dec-02 15:53 065 1 gusting 2 12.8
2016-Dec-02 15:43 13.3
2016-Dec-02 15:33 017 0 gusting 5 13.3
2016-Dec-02 15:23 007 2 gusting 6 13.3
2016-Dec-02 15:13 13.9
2016-Dec-02 15:03 045 1 gusting 6 14.4
2016-Dec-02 14:53 338 2 gusting 6 15.0
2016-Dec-02 14:43 039 1 gusting 6 15.6
2016-Dec-02 14:33 080 4 gusting 7 15.6
2016-Dec-02 14:23 044 2 gusting 12 15.6
2016-Dec-02 14:03 045 5 gusting 11 15.6
2016-Dec-02 13:53 045 6 gusting 11 15.6
2016-Dec-02 13:43 045 6 gusting 12 15.6
2016-Dec-02 13:33 054 6 gusting 11 16.1
2016-Dec-02 13:23 085 5 gusting 12 16.1
2016-Dec-02 13:13 035 4 gusting 11 16.7
2016-Dec-02 13:03 090 5 gusting 11 16.7
2016-Dec-02 12:53 16.7
2016-Dec-02 12:43 021 5 gusting 12 16.7
2016-Dec-02 12:33 045 4 gusting 11 16.1
2016-Dec-02 12:23 082 4 gusting 11 16.7
2016-Dec-02 12:13 079 4 gusting 12 16.7
2016-Dec-02 12:03 061 3 gusting 10 16.1
2016-Dec-02 11:53 010 6 gusting 15 16.7
2016-Dec-02 11:43 045 6 gusting 11 16.7
2016-Dec-02 11:33 045 4 gusting 11 16.1
2016-Dec-02 11:23 082 5 gusting 10 16.1
2016-Dec-02 11:13 045 5 gusting 10 15.6
2016-Dec-02 11:03 036 6 gusting 10 15.6
2016-Dec-02 10:53 038 4 gusting 11 15.0
2016-Dec-02 10:43 135 2 gusting 11 15.0
2016-Dec-02 10:33 056 4 gusting 11 15.0
2016-Dec-02 10:23 031 3 gusting 11 15.6
2016-Dec-02 10:13 086 5 gusting 10 15.6
2016-Dec-02 10:03 045 5 gusting 13 15.6
2016-Dec-02 09:53 067 4 gusting 11 16.1
2016-Dec-02 09:43 024 6 gusting 10 15.6
2016-Dec-02 09:33 324 6 gusting 11 15.6
2016-Dec-02 09:23 270 3 gusting 7 15.6
2016-Dec-02 09:13 074 6 gusting 11 15.6
2016-Dec-02 09:03 024 4 gusting 6 15.6
2016-Dec-02 08:53 045 3 gusting 8 15.0
2016-Dec-02 08:43 14.4
2016-Dec-02 08:33 090 4 gusting 6 13.9
2016-Dec-02 08:23 010 3 gusting 6 13.3
2016-Dec-02 08:13 040 2 gusting 6 13.9
2016-Dec-02 08:03 043 3 gusting 8 13.9
2016-Dec-02 07:53 13.3
2016-Dec-02 07:43 321 2 gusting 6 12.2
2016-Dec-02 07:33 336 2 gusting 6 11.1
2016-Dec-02 07:23 045 1 gusting 6 11.1
2016-Dec-02 07:13 126 2 gusting 10 11.1
2016-Dec-02 07:03 001 1 gusting 6 10.0
2016-Dec-02 06:53 9.4
2016-Dec-02 06:43 315 8.9
2016-Dec-02 06:33 298 2 gusting 5 8.9
2016-Dec-02 06:23 334 0 gusting 4 8.3
2016-Dec-02 06:13 315 2 gusting 5 8.3
2016-Dec-02 06:03 252 1 gusting 4 8.9
2016-Dec-02 05:53 333 0 gusting 5 8.3
2016-Dec-02 05:43 045 0 gusting 4 8.3
2016-Dec-02 05:33 307 0 gusting 5 8.9
2016-Dec-02 05:23 010 0 gusting 2 8.3
2016-Dec-02 05:13 089 1 gusting 5 8.3
2016-Dec-02 05:03 315 0 gusting 4 8.3
2016-Dec-02 04:53 284 1 gusting 4 8.3
2016-Dec-02 04:43 047 0 gusting 4 8.3
2016-Dec-02 04:33 068 1 gusting 6 8.3
2016-Dec-02 04:23 089 1 gusting 6 8.9
2016-Dec-02 04:13 085 3 gusting 6 10.0
2016-Dec-02 04:03 326 0 gusting 6 8.9
2016-Dec-02 03:53 180 2 gusting 6 8.9
2016-Dec-02 03:43 029 4 gusting 7 8.9
2016-Dec-02 03:33 331 0 gusting 5 8.9
2016-Dec-02 03:23 046 0 gusting 8 8.9
2016-Dec-02 03:13 058 3 gusting 6 8.3
2016-Dec-02 03:03 045 1 gusting 2 8.3
2016-Dec-02 02:53 010 8.3
2016-Dec-02 02:43 8.3
2016-Dec-02 02:33 102 0 gusting 5 8.3
2016-Dec-02 02:23 090 1 gusting 5 8.3
2016-Dec-02 02:13 009 1 gusting 5 8.3
2016-Dec-02 02:03 349 2 gusting 6 8.3
2016-Dec-02 01:53 059 1 gusting 2 8.3
2016-Dec-02 01:43 329 1 gusting 6 8.3
2016-Dec-02 01:33 8.3
2016-Dec-02 01:23 010 1 gusting 5 8.3
2016-Dec-02 01:13 020 0 gusting 2 8.3
2016-Dec-02 01:03 045 0 gusting 6 8.3
2016-Dec-02 00:53 030 3 gusting 6 8.3
2016-Dec-02 00:43 031 2 gusting 5 8.3
2016-Dec-02 00:33 055 0 gusting 5 8.3
2016-Dec-02 00:23 028 1 gusting 5 8.3
2016-Dec-02 00:13 358 1 gusting 5 7.8
2016-Dec-02 00:03 028 0 gusting 5 7.8
2016-Dec-01 23:53 7.8
2016-Dec-01 23:43 333 0 gusting 4 7.8
2016-Dec-01 23:33 025 1 gusting 6 7.2
2016-Dec-01 23:23 270 1 gusting 2 7.2
2016-Dec-01 23:13 004 7.2
2016-Dec-01 23:03 045 1 gusting 5 7.2
2016-Dec-01 22:53 089 2 gusting 5 7.2
2016-Dec-01 22:43 002 1 gusting 5 7.2
2016-Dec-01 22:33 7.2
2016-Dec-01 22:23 315 0 gusting 4 7.2
2016-Dec-01 22:13 331 0 gusting 2 7.2
2016-Dec-01 22:03 359 0 gusting 4 7.2
2016-Dec-01 21:53 352 0 gusting 4 6.7
2016-Dec-01 21:43 074 6.7
2016-Dec-01 21:33 315 7.2
2016-Dec-01 21:23 023 1 gusting 4 7.2
2016-Dec-01 21:13 7.2
2016-Dec-01 21:03 7.2
2016-Dec-01 20:53 008 0 gusting 5 7.8
2016-Dec-01 20:43 045 0 gusting 5 7.8
2016-Dec-01 20:33 106 0 gusting 2 7.2
2016-Dec-01 20:23 327 0 gusting 2 7.8
2016-Dec-01 20:13 343 7.8
2016-Dec-01 20:03 057 1 gusting 4 7.8
2016-Dec-01 19:53 325 0 gusting 2 7.8
2016-Dec-01 19:43 7.8
2016-Dec-01 19:33 325 1 gusting 4 7.8
2016-Dec-01 19:23 7.8
2016-Dec-01 19:13 315 7.8
2016-Dec-01 19:03 045 0 gusting 2 8.3
2016-Dec-01 18:53 315 8.3
2016-Dec-01 18:43 351 8.3
2016-Dec-01 18:33 324 8.9
2016-Dec-01 18:23 109 1 gusting 4 8.9
2016-Dec-01 18:13 011 0 gusting 5 9.4
2016-Dec-01 18:03 030 2 gusting 5 10.0
2016-Dec-01 17:53 001 0 gusting 5 10.6
2016-Dec-01 17:43 357 10.6
2016-Dec-01 17:33 322 1 gusting 6 10.6
2016-Dec-01 17:23 11.1
2016-Dec-01 17:13 349 2 gusting 5 11.1
2016-Dec-01 17:03 090 0 gusting 6 11.1
2016-Dec-01 16:53 244 2 gusting 6 11.1
2016-Dec-01 16:43 330 2 gusting 6 11.1
2016-Dec-01 16:33 033 2 gusting 5 11.1
2016-Dec-01 16:23 304 0 gusting 6 11.1
2016-Dec-01 16:13 021 2 gusting 6 11.1
2016-Dec-01 16:03 315 0 gusting 2 11.7
2016-Dec-01 15:53 322 11.7
2016-Dec-01 15:43 045 0 gusting 5 12.2
2016-Dec-01 15:33 303 1 gusting 4 12.8
2016-Dec-01 15:23 045 0 gusting 5 12.8
2016-Dec-01 15:13 026 1 gusting 5 13.3
2016-Dec-01 15:03 045 0 gusting 5 13.9
2016-Dec-01 14:53 027 2 gusting 5 14.4
2016-Dec-01 14:43 045 1 gusting 6 14.4
2016-Dec-01 14:33 052 2 gusting 6 15.0
2016-Dec-01 14:23 074 2 gusting 7 15.0
2016-Dec-01 14:13 072 2 gusting 6 15.0
2016-Dec-01 14:03 135 2 gusting 6 15.0
2016-Dec-01 13:53 045 1 gusting 7 15.0
2016-Dec-01 13:43 169 2 gusting 7 15.6
2016-Dec-01 13:33 349 2 gusting 7 15.6
2016-Dec-01 13:23 032 4 gusting 7 15.0
2016-Dec-01 13:13 220 1 gusting 8 15.6
2016-Dec-01 13:03 090 5 gusting 11 15.6
2016-Dec-01 12:53 054 6 gusting 8 15.6
2016-Dec-01 12:43 086 4 gusting 13 15.6
2016-Dec-01 12:33 001 4 gusting 11 15.6
2016-Dec-01 12:23 348 3 gusting 10 15.6
2016-Dec-01 12:13 065 5 gusting 11 15.6
2016-Dec-01 12:03 045 5 gusting 8 15.6
2016-Dec-01 11:53 338 4 gusting 8 15.6
2016-Dec-01 11:43 050 5 gusting 10 15.6
2016-Dec-01 11:33 055 4 gusting 8 15.6
2016-Dec-01 11:23 045 4 gusting 10 15.6
2016-Dec-01 11:13 064 4 gusting 10 15.6
2016-Dec-01 11:03 15.0
2016-Dec-01 10:53 058 4 gusting 7 15.0
2016-Dec-01 10:43 092 2 gusting 6 15.0
2016-Dec-01 10:33 039 4 gusting 8 15.0
2016-Dec-01 10:23 056 5 gusting 7 14.4
2016-Dec-01 10:13 135 4 gusting 8 14.4
2016-Dec-01 10:03 073 4 gusting 11 14.4
2016-Dec-01 09:53 225 4 gusting 8 13.9
2016-Dec-01 09:43 13.9
2016-Dec-01 09:33 045 3 gusting 11 13.9
2016-Dec-01 09:23 053 3 gusting 11 13.3
2016-Dec-01 09:13 045 2 gusting 8 13.3
2016-Dec-01 09:03 021 5 gusting 8 12.8
2016-Dec-01 08:53 045 5 gusting 10 12.2
2016-Dec-01 08:43 045 2 gusting 7 11.7
2016-Dec-01 08:33 002 2 gusting 5 10.6
2016-Dec-01 08:23 045 1 gusting 2 10.0
2016-Dec-01 08:13 026 0 gusting 2 9.4
2016-Dec-01 08:03 8.3
2016-Dec-01 07:53 072 0 gusting 2 7.8
2016-Dec-01 07:43 6.7
2016-Dec-01 07:33 318 5.6
2016-Dec-01 07:23 059 0 gusting 1 3.9
2016-Dec-01 07:13 315 2.8
2016-Dec-01 07:03 315 0 gusting 2 1.1
2016-Dec-01 06:53 305 0 gusting 1 -0.0
2016-Dec-01 06:43 315 -0.0
2016-Dec-01 06:33 315 0.6
2016-Dec-01 06:23 045 1.1
2016-Dec-01 06:13 270 1 gusting 2 1.1
2016-Dec-01 06:03 270 1.1
2016-Dec-01 05:53 270 0 gusting 2 0.6
2016-Dec-01 05:43 191 1.1
2016-Dec-01 05:33 017 0 gusting 2 0.6
2016-Dec-01 05:23 284 1 gusting 2 0.6
2016-Dec-01 05:13 303 0 gusting 2 -0.0
2016-Dec-01 05:03 225 0 gusting 2 -1.1
2016-Dec-01 04:53 358 -1.1
2016-Dec-01 04:43 315 0 gusting 2 -0.6
2016-Dec-01 04:33 315 -0.6
2016-Dec-01 04:23 270 -0.6
2016-Dec-01 04:13 331 -0.6
2016-Dec-01 04:03 282 0 gusting 2 -1.1
2016-Dec-01 03:53 270 -1.1
2016-Dec-01 03:43 315 -0.6
2016-Dec-01 03:33 -0.6
2016-Dec-01 03:23 242 -0.6
2016-Dec-01 03:13 268 -0.6
2016-Dec-01 03:03 180 -0.0
2016-Dec-01 02:53 147 -0.0
2016-Dec-01 02:43 273 0 gusting 2 -0.0
2016-Dec-01 02:33 315 0 gusting 2 -0.0
2016-Dec-01 02:23 315 -0.0
2016-Dec-01 02:13 270 1 gusting 4 -0.0
2016-Dec-01 02:03 315 0 gusting 2 -0.6
2016-Dec-01 01:53 203 0 gusting 2 -0.0
2016-Dec-01 01:43 315 0 gusting 1 0.6
2016-Dec-01 01:33 270 1.1
2016-Dec-01 01:23 315 0.6
2016-Dec-01 01:13 330 1 gusting 2 1.1
2016-Dec-01 01:03 270 0.6
2016-Dec-01 00:53 286 0 gusting 2 1.1
2016-Dec-01 00:43 312 1 gusting 2 1.1
2016-Dec-01 00:33 315 0 gusting 2 1.7
2016-Dec-01 00:23 311 1.7
2016-Dec-01 00:13 270 0 gusting 2 1.1
2016-Dec-01 00:03 301 0 gusting 2 1.1